Hourly Data Report for October 29, 2015

All times are specified in Local Standard Time (LST). Add 1 hour to adjust for Daylight Saving Time where and when it is observed.

KUGAARUK CLIMATE
NUNAVUT

68°32'15.060" N
89°47'47.020" W
15.80 m
2303094
71407
NBB

Download Data

Hourly Data (October 2015)
Hourly Data Report for October 29, 2015
Temp Definition
°C
Dew Point Temp Definition
°C
Rel Hum Definition
%
Wind Dir Definition
10's deg

Wind Spd Definition
km/h
Visibility Definition
km
Stn Press Definition
kPa
Hmdx Definition


Wind Chill Definition


Weather Definition


TIME
00:00 -19.7 -21.7 84 10 2   100.99   -21 LegendNANA
01:00 -19.8 -22.0 83   0   101.02     LegendNANA
02:00 -19.3 -21.4 84 10 2   101.03   -21 LegendNANA
03:00 -19.0 -21.1 84 0 1   101.05   -20 LegendNANA
04:00 -18.1 -20.1 84   0   101.04     LegendNANA
05:00 -15.7 -17.4 87 23 3   101.02   -18 LegendNANA
06:00 -14.8 -16.5 87 26 5   101.02   -18 LegendNANA
07:00 -13.8 -15.5 87 35 10   101.04   -20 LegendNANA
08:00 -13.7 -15.6 85 35 6   101.05   -18 LegendNANA
09:00 -13.9 -16.1 83 32 7   101.06   -19 LegendNANA
10:00 -14.3 -16.5 83 34 12   101.07   -21 LegendNANA
11:00 -14.0 -16.0 85 30 8   101.05   -19 LegendNANA
12:00 -14.0 -16.2 84 31 12   101.05   -21 LegendNANA
13:00 -14.1 -16.2 83 33 12   101.06   -21 LegendNANA
14:00 -14.5 -16.7 83 36 15   101.05   -22 LegendNANA
15:00 -14.7 -17.0 83 33 13   101.06   -22 LegendNANA
16:00 -14.9 -17.2 82 32 14   101.04   -22 LegendNANA
17:00 -15.3 -17.7 82 34 11   101.03   -22 LegendNANA
18:00 -15.3 -17.7 82 35 14   101.03   -23 LegendNANA
19:00 -15.2 -17.4 83 35 13   101.01   -23 LegendNANA
20:00 -15.9 -18.1 83 34 16   101.00   -24 LegendNANA
21:00 -16.7 -19.4 79 30 14   100.97   -25 LegendNANA
22:00 -17.3 -20.1 79 32 14   100.96   -25 LegendNANA
23:00 -17.4 -20.2 79 28 11   100.95   -25 LegendNANA

Notes on Data Quality.

Legend

  • E = Estimated
  • M = Missing
  • NA = Not Available
  • ‡ = Partner data that is not subject to review by the National Climate Archives
Date modified: